Regional Weather Roundup
Issued by NWS Newport/Morehead, NC

Current Version | Previous Version | Text Only | Print | Product List | Glossary On
Versions: 1 2 3 4 5 6 7 8 9 10 11 12 13 14 15 16 17 18 19 20 21 22 23 24 25 26 27 28 29 30 31 32 33 34 35 36 37 38 39 40 41 42 43 44 45 46 47 48 49 50
000
ASUS42 KMHX 110525
RWRMHX
WEATHER ROUNDUP FOR EASTERN NORTH CAROLINA
NATIONAL WEATHER SERVICE NEWPORT/MOREHEAD CITY NC
1200 AM EST THU FEB 11 2016

NOTE: "FAIR" INDICATES FEW OR NO CLOUDS BELOW 12,000 FEET
WITH NO SIGNIFICANT WEATHER AND/OR OBSTRUCTIONS TO VISIBILITY

NCZ015>017-031-032-045>047-102-103-110600-
NORTH COAST

CITY           SKY/WX    TMP DP  RH WIND       PRES   REMARKS
EDENTON        PTCLDY    31  10  41 NW16G26   30.03R
ELIZABETH CITY PTCLDY    28  10  46 W18G32    30.00R WCI  15
KITTY HAWK     MOCLDY    32  13  45 W17G25    29.97R
MANTEO         MOCLDY    32  15  49 NW16G28   30.00R

$$

NCZ045>047-081-094-103-104-110600-
CENTRAL COAST

CITY           SKY/WX    TMP DP  RH WIND       PRES   REMARKS
FRISCO         PTCLDY    37  19  48 NW18G36   29.99R
SWANQUARTER      N/A    N/A N/A N/A NW17      30.00S

$$

NCZ095-097-098-100-101-110600-
SOUTHERN COAST

CITY           SKY/WX    TMP DP  RH WIND       PRES   REMARKS
BEAUFORT       CLEAR     33  17  51 W13       30.06R
CEDAR ISLAND     N/A     34 N/A N/A W12G24    30.09R
JACKSONVILLE   NOT AVBL
PINEY ISLAND   CLEAR    N/A N/A N/A W14G24    30.04R
WILMINGTON     CLEAR     33  17  51 SW13      30.10R


$$

NCZ011>013-027>030-043-044-078>080-089-090>093-098-110600-
COASTAL PLAIN

CITY           SKY/WX    TMP DP  RH WIND       PRES   REMARKS
AHOSKIE        CLEAR     27   7  42 NW5       30.04S
CLINTON        CLEAR     30  14  51 W6        30.09S
ELIZABETHTOWN  CLEAR     30  16  56 CALM      30.09S
GOLDSBORO      CLEAR     28   9  43 W7        30.06R
GREENVILLE     CLEAR     30  10  43 NW3       30.07R
HAVELOCK       CLEAR     31  17  56 W10       30.06R
KENANSVILLE    CLEAR     29  13  51 CALM      30.09R
KINSTON        CLEAR     30  10  43 W7        30.07R
NEW BERN       CLEAR     31  14  49 W7        30.07R
RICHLANDS      CLEAR     28  14  54 SW5       30.09R
ROCKY MOUNT    CLEAR     28   9  44 W10       30.05R WCI  19
WASHINGTON     CLEAR     29  10  44 W6        30.05R
WHITEVILLE     CLEAR     31  15  50 CALM      30.09F

$$

AMZ130-135-150-152-154-156-158-170-250-252-270-ANZ085-086-088-633-658-670-110600-
MARINE OBSERVATIONS

STATION/POSITION TIME  TEMP    WIND        PRES    WAVE   SWELL
                       AIR SEA DIR/SP/G            HT/PER HT/PER
                 (UTC) (F)     (DEG/KT/KT) (MB)    (FT/S) (FT/S)
CHESAPEAKE LIGHT 0500   32     290/ 27/ 30 1014.6
64 E VA BEACH    0450   37 49  280/ 29/ 37 1011.7    8/ 5   3/13
DUCK             0500   31     290/ 24/ 29 1014.7
2 E DUCK         0411      44                N/A     3/14   2/14
OREGON INLET     0500   33 43  290/ 21/ 31 1015.1
13E OREGON INLT  0500      46                N/A     5/13   2/13
HATTERAS CG      0400   39 49  270/ 27/ 33 1014.6
DIAMOND BUOY     0450   42 72  290/ 27/ 33 1014.8    7/ 6   2/13
CAPE LOOKOUT     NOT AVBL
BEAUFORT LAB     0400   36 46  290/ 11/ 19 1016.3
30 SE NEW RVR IN 0408   42 58              1017.2
30 SE NEW RVR IN 0425      58                N/A     8/ 7   2/13
27 SE WRIGHTSVLE 0408   41 61  360/ 25/ 33 1016.7
5 SE WRIGHTSVLE  0408   38 51  270/ 21/ 29 1018.9
225 S CAPE HAT   0450   55 68  280/ 29/ 35   N/A    16/10  11/10
41 SE CHARLESTON 0450   45 63  280/ 27/ 33 1019.8    9/ 8   2/12

$$



USA.gov is the U.S. government's official web portal to all federal, state and local government web resources and services.